Weather History for Caldwell, NJ

Change the Weather History Date:

Saturday, October 6, 2012

  Actual Average Record
Temperature  
Mean Temperature 63 °F -  
Max Temperature 75 °F 69 °F 86 °F (1997)
Min Temperature 51 °F 45 °F 27 °F (1958)
Degree Days  
Heating Degree Days 2    
Growing Degree Days 13 (Base 50)    
Moisture  
Dew Point 53 °F    
Average Humidity 73    
Maximum Humidity 90    
Minimum Humidity 55    
Precipitation  
Precipitation 0.00 in - - ()
Sea Level Pressure  
Sea Level Pressure 29.89 in    
Wind  
Wind Speed 3 mph (WNW)    
Max Wind Speed 16 mph    
Max Gust Speed 24 mph    
Visibility 8 miles    
Events      
Averages and records for this station are not official NWS values.
T = Trace of Precipitation, MM = Missing Value Source: NWS Daily Summary

Daily Weather History Graph

Daily Weather History Graph

Search for Another Location

Airport:

Trip Planner

Search our weather history database for the weather conditions in past years. The results will help you decide how hot, cold, wet, or windy it might be!

Date:

Astronomy

Oct. 06, 2012 Rise Set
Actual Time 6:59 AM EDT 6:30 PM EDT
Civil Twilight 6:31 AM EDT 6:57 PM EDT
Nautical Twilight 6:00 AM EDT 7:29 PM EDT
Astronomical Twilight 5:28 AM EDT 8:01 PM EDT
Moon 10:41 PM EDT (10/6) 12:53 PM EDT (10/6)
Length of Visible Light 12h 25m
Length of Day
11h 30m
Waning Gibbous, 65% of the Moon is Illuminated
Oct 6
Waning Gibbous
Oct 8
Last Quarter
Oct 15
New
Oct 21
First Quarter
Oct 29
Full

Hourly Weather History & Observations

Time (EDT) Temp. Dew Point Humidity Pressure Visibility Wind Dir Wind Speed Gust Speed Precip Events Conditions
12:53 AM 61.0 °F 57.0 °F 87% 29.94 in 6.0 mi Calm Calm - N/A   Clear
1:53 AM 61.0 °F 57.0 °F 87% 29.92 in 6.0 mi Calm Calm - N/A   Clear
2:53 AM 59.0 °F 55.9 °F 90% 29.91 in 5.0 mi Calm Calm - N/A   Clear
3:53 AM 57.9 °F 55.0 °F 90% 29.90 in 4.0 mi Calm Calm - N/A   Clear
4:53 AM 61.0 °F 55.9 °F 83% 29.89 in 8.0 mi Calm Calm - N/A   Clear
5:53 AM 62.1 °F 55.9 °F 80% 29.88 in 9.0 mi Calm Calm - N/A   Clear
6:53 AM 59.0 °F 55.0 °F 87% 29.87 in 5.0 mi Calm Calm - N/A   Clear
7:53 AM 59.0 °F 55.9 °F 90% 29.87 in 4.0 mi Calm Calm - N/A   Clear
8:53 AM 62.1 °F 57.0 °F 84% 29.86 in 5.0 mi Variable 3.5 mph - N/A   Haze
9:53 AM 66.0 °F 57.9 °F 75% 29.85 in 8.0 mi Variable 3.5 mph - N/A   Clear
10:53 AM 71.1 °F 59.0 °F 66% 29.83 in 10.0 mi Variable 5.8 mph - N/A   Clear
11:53 AM 73.9 °F 59.0 °F 59% 29.82 in 10.0 mi WSW 8.1 mph - N/A   Partly Cloudy
12:53 PM 75.0 °F 59.0 °F 57% 29.80 in 10.0 mi SW 6.9 mph - N/A   Mostly Cloudy
1:53 PM 73.9 °F 57.0 °F 55% 29.79 in 10.0 mi Variable 6.9 mph - N/A   Overcast
2:53 PM 72.0 °F 55.9 °F 57% 29.80 in 10.0 mi WNW 10.4 mph 20.7 mph N/A   Overcast
3:53 PM 66.9 °F 55.9 °F 68% 29.83 in 10.0 mi NW 15.0 mph 23.0 mph N/A   Overcast
4:06 PM 64.4 °F 53.6 °F 68% 29.83 in 10.0 mi WNW 16.1 mph 24.2 mph N/A   Overcast
4:53 PM 63.0 °F 51.1 °F 65% 29.88 in 10.0 mi NW 10.4 mph 16.1 mph N/A   Overcast
5:08 PM 62.6 °F 51.8 °F 68% 29.87 in 10.0 mi NNW 10.4 mph - N/A   Overcast
5:40 PM 62.6 °F 48.2 °F 59% 29.89 in 10.0 mi NW 9.2 mph 16.1 mph N/A   Mostly Cloudy
5:53 PM 60.1 °F 46.9 °F 62% 29.91 in 10.0 mi NW 11.5 mph 17.3 mph N/A   Scattered Clouds
6:53 PM 57.0 °F 46.9 °F 69% 29.93 in 10.0 mi Calm Calm - N/A   Clear
7:53 PM 55.0 °F 46.0 °F 72% 29.96 in 10.0 mi Calm Calm - N/A   Clear
8:53 PM 54.0 °F 46.0 °F 75% 29.98 in 10.0 mi WNW 4.6 mph - N/A   Clear
9:53 PM 52.0 °F 45.0 °F 77% 30.00 in 10.0 mi Calm Calm - N/A   Clear
10:53 PM 51.1 °F 45.0 °F 80% 30.02 in 10.0 mi Calm Calm - N/A   Clear
11:53 PM 51.1 °F 43.0 °F 74% 30.02 in 10.0 mi Calm Calm - N/A   Clear